SPACEBEE-72 (48634 NORAD) Tracking and Keplerian Element Data

This shows tracking and keplerian element data for the satellite.

Feedback or suggestion? Click here.




ElementValue
Catalog48634
NameSPACEBEE-72
Epoch Orbit2904
Epoch Day214.62410192
Epoch Year2021
RAAN272.3153
Inclination97.254
Eccentricity0.0014723
Argument of Perigee293.744
Mean Anonmoly66.2248
Mean Motion15.1466419
Decay Rate2.396E-05
L11 48634U 21006FA 21214.62410192 .00002396 00000-0 13265-3 0 9999
L22 48634 97.2540 272.3153 0014723 293.7440 66.2248 15.14664190 29043

Live tracking and technical data element details for SPACEBEE-72 (NORAD 48634). SPACEBEE-72 can be tracked NOW for your location showing map with azimuth and elevation plus other details from your city location.

Track the satellite on the map from your city or location and see movement details for azimuth, elevation, latitude, longitude, range, height, and movement on the map or in text.







IsCatalogInMostPopularTable: catalog: 48634, numindb: 20
Update: records affected: 1



GetName: 48634 SPACEBEE-72

Hit Count: updated at: Wed, 04 Aug 2021 00:58:20 GMT